• In Uzbekistan
  • List of Countries
  • For 7 days
  • Water Temperature
  • Satellite Maps
  • Weather Map
  • Weather Widgets
  • user-avatar
    Login

    Hourly Weather Saurimo

    Today, 6 December, Tuesday

    Time Temperature Precipitation Wind Pressure Humidity
    00:00 +21°C° 0.1 mm 1 mps 669 mmHg 92%
    01:00 +20°C° 0.1 mm 1 mps 669 mmHg 94%
    02:00 +20°C° 1.4 mm 1 mps 669 mmHg 95%
    03:00 +20°C° 1.4 mm 1 mps 669 mmHg 96%
    04:00 +20°C° 1.4 mm 1 mps 669 mmHg 98%
    05:00 +20°C° 0.7 mm 1 mps 669 mmHg 96%
    06:00 +21°C° 0.7 mm 1 mps 670 mmHg 95%
    07:00 +20°C° 0.7 mm 0 mps 670 mmHg 94%
    08:00 +23°C° 0 mm 1 mps 670 mmHg 84%
    09:00 +25°C° 0 mm 1 mps 671 mmHg 75%
    10:00 +27°C° 0 mm 1 mps 671 mmHg 66%
    11:00 +28°C° 0.2 mm 1 mps 671 mmHg 65%
    12:00 +28°C° 0.2 mm 1 mps 670 mmHg 65%
    13:00 +29°C° 0.2 mm 2 mps 670 mmHg 64%
    14:00 +28°C° 0.6 mm 2 mps 669 mmHg 71%
    15:00 +27°C° 0.6 mm 2 mps 669 mmHg 77%
    16:00 +26°C° 0.6 mm 2 mps 668 mmHg 84%
    17:00 +25°C° 0.9 mm 1 mps 669 mmHg 88%
    18:00 +24°C° 0.9 mm 1 mps 669 mmHg 91%
    19:00 +22°C° 0.9 mm 1 mps 669 mmHg 95%
    20:00 +22°C° 1.2 mm 1 mps 670 mmHg 96%
    21:00 +22°C° 1.2 mm 1 mps 670 mmHg 96%
    22:00 +21°C° 1.2 mm 1 mps 671 mmHg 97%
    23:00 +21°C° 0.7 mm 1 mps 670 mmHg 97%

    Tomorrow, 7 December, Wednesday

    Time Temperature Precipitation Wind Pressure Humidity
    00:00 +21°C° 0.7 mm 1 mps 670 mmHg 98%
    01:00 +21°C° 0.7 mm 1 mps 670 mmHg 98%
    02:00 +21°C° 0.8 mm 1 mps 669 mmHg 98%
    03:00 +21°C° 0.8 mm 1 mps 669 mmHg 98%
    04:00 +20°C° 0.8 mm 2 mps 669 mmHg 98%
    05:00 +20°C° 0.8 mm 2 mps 669 mmHg 98%
    06:00 +20°C° 0.8 mm 2 mps 670 mmHg 97%
    07:00 +21°C° 0.8 mm 2 mps 670 mmHg 96%
    08:00 +21°C° 0.7 mm 2 mps 670 mmHg 94%
    09:00 +21°C° 0.7 mm 2 mps 670 mmHg 92%
    10:00 +23°C° 0.7 mm 2 mps 670 mmHg 90%
    11:00 +23°C° 1 mm 2 mps 670 mmHg 91%
    12:00 +23°C° 1 mm 2 mps 670 mmHg 92%
    13:00 +23°C° 1 mm 2 mps 669 mmHg 93%
    14:00 +23°C° 0.7 mm 1 mps 669 mmHg 94%
    15:00 +23°C° 0.7 mm 1 mps 669 mmHg 94%
    16:00 +23°C° 0.7 mm 1 mps 668 mmHg 95%
    17:00 +22°C° 0.2 mm 1 mps 669 mmHg 96%
    18:00 +21°C° 0.2 mm 1 mps 669 mmHg 97%
    19:00 +21°C° 0.2 mm 1 mps 669 mmHg 98%
    20:00 +21°C° 0.7 mm 1 mps 670 mmHg 98%
    21:00 +20°C° 0.7 mm 1 mps 670 mmHg 98%
    22:00 +20°C° 0.7 mm 1 mps 671 mmHg 98%
    23:00 +20°C° 1.6 mm 1 mps 670 mmHg 98%

    Day after tomorrow, 8 December, Thursday

    Time Temperature Precipitation Wind Pressure Humidity
    00:00 +20°C° 1.6 mm 1 mps 670 mmHg 98%
    01:00 +20°C° 1.6 mm 1 mps 670 mmHg 99%
    02:00 +20°C° 2.4 mm 1 mps 670 mmHg 99%
    03:00 +20°C° 2.4 mm 1 mps 670 mmHg 99%
    04:00 +20°C° 2.4 mm 1 mps 669 mmHg 99%
    05:00 +20°C° 2.8 mm 1 mps 670 mmHg 99%
    06:00 +21°C° 2.8 mm 1 mps 670 mmHg 98%
    07:00 +21°C° 2.8 mm 1 mps 671 mmHg 98%
    08:00 +21°C° 4.3 mm 1 mps 671 mmHg 98%
    09:00 +20°C° 4.3 mm 2 mps 671 mmHg 98%
    10:00 +20°C° 4.3 mm 2 mps 671 mmHg 97%
    11:00 +20°C° 2.2 mm 2 mps 671 mmHg 97%
    12:00 +21°C° 2.2 mm 1 mps 671 mmHg 96%
    13:00 +21°C° 2.2 mm 1 mps 670 mmHg 96%
    14:00 +22°C° 0.4 mm 1 mps 670 mmHg 95%
    15:00 +22°C° 0.4 mm 1 mps 669 mmHg 94%
    16:00 +22°C° 0.4 mm 1 mps 669 mmHg 94%
    17:00 +21°C° 0 mm 1 mps 669 mmHg 95%
    18:00 +21°C° 0 mm 1 mps 669 mmHg 96%
    19:00 +20°C° 0 mm 1 mps 670 mmHg 97%
    20:00 +20°C° 0 mm 1 mps 670 mmHg 98%
    21:00 +20°C° 0 mm 1 mps 670 mmHg 98%
    22:00 +20°C° 0 mm 1 mps 671 mmHg 98%
    23:00 +20°C° 0 mm 1 mps 670 mmHg 98%

    9 December, Friday

    Time Temperature Precipitation Wind Pressure Humidity
    00:00 +20°C° 0 mm 1 mps 670 mmHg 98%
    01:00 +20°C° 0 mm 1 mps 670 mmHg 98%
    02:00 +19°C° 0 mm 1 mps 670 mmHg 98%
    03:00 +19°C° 0 mm 1 mps 670 mmHg 98%
    04:00 +19°C° 0 mm 1 mps 670 mmHg 98%
    05:00 +20°C° 0 mm 1 mps 670 mmHg 97%
    06:00 +21°C° 0 mm 1 mps 671 mmHg 95%
    07:00 +22°C° 0 mm 1 mps 672 mmHg 93%
    08:00 +23°C° 0.1 mm 1 mps 672 mmHg 85%
    09:00 +25°C° 0.1 mm 1 mps 672 mmHg 76%
    10:00 +27°C° 0.1 mm 2 mps 673 mmHg 68%
    11:00 +26°C° 0.4 mm 2 mps 672 mmHg 71%
    12:00 +26°C° 0.5 mm 2 mps 671 mmHg 74%
    13:00 +26°C° 0.5 mm 2 mps 670 mmHg 78%
    14:00 +25°C° 0.8 mm 2 mps 670 mmHg 82%
    15:00 +25°C° 0.8 mm 2 mps 670 mmHg 87%
    16:00 +24°C° 0.8 mm 2 mps 669 mmHg 91%
    17:00 +23°C° 2.1 mm 2 mps 670 mmHg 93%
    18:00 +21°C° 2.1 mm 2 mps 670 mmHg 95%
    19:00 +20°C° 2.1 mm 2 mps 671 mmHg 97%
    20:00 +20°C° 4.8 mm 2 mps 671 mmHg 97%
    21:00 +19°C° 4.8 mm 2 mps 671 mmHg 97%
    22:00 +19°C° 4.8 mm 2 mps 671 mmHg 98%
    23:00 +20°C° 3.3 mm 1 mps 671 mmHg 98%

    10 December, Saturday

    Time Temperature Precipitation Wind Pressure Humidity
    00:00 +20°C° 3.3 mm 1 mps 670 mmHg 98%
    01:00 +19°C° 3.3 mm 1 mps 670 mmHg 98%
    02:00 +19°C° 1.9 mm 1 mps 670 mmHg 98%
    03:00 +19°C° 1.9 mm 1 mps 670 mmHg 98%
    04:00 +19°C° 1.9 mm 1 mps 670 mmHg 98%
    05:00 +20°C° 1.2 mm 1 mps 671 mmHg 98%
    06:00 +18°C° 1.2 mm 0 mps 671 mmHg 97%
    07:00 +18°C° 1.2 mm 0 mps 672 mmHg 97%
    08:00 +20°C° 1.3 mm 1 mps 672 mmHg 97%
    09:00 +21°C° 1.3 mm 1 mps 672 mmHg 96%
    10:00 +21°C° 1.3 mm 1 mps 672 mmHg 96%
    11:00 +21°C° 0.7 mm 1 mps 671 mmHg 94%
    12:00 +22°C° 0.7 mm 1 mps 671 mmHg 93%
    13:00 +22°C° 0.7 mm 1 mps 671 mmHg 91%
    14:00 +23°C° 0.1 mm 1 mps 670 mmHg 88%
    15:00 +23°C° 0.1 mm 1 mps 670 mmHg 85%
    16:00 +24°C° 0.1 mm 1 mps 670 mmHg 82%
    17:00 +22°C° 0 mm 1 mps 670 mmHg 87%
    18:00 +21°C° 0 mm 1 mps 670 mmHg 91%
    19:00 +20°C° 0 mm 1 mps 670 mmHg 96%
    20:00 +17°C° 0 mm 0 mps 670 mmHg 96%
    21:00 +17°C° 0 mm 0 mps 670 mmHg 96%
    22:00 +17°C° 0 mm 0 mps 670 mmHg 97%
    23:00 +17°C° 0.1 mm 0 mps 670 mmHg 97%

    11 December, Sunday

    Time Temperature Precipitation Wind Pressure Humidity
    00:00 +19°C° 0.1 mm 1 mps 670 mmHg 97%
    01:00 +19°C° 0.1 mm 1 mps 669 mmHg 97%
    02:00 +16°C° 0 mm 0 mps 669 mmHg 98%
    03:00 +16°C° 0 mm 0 mps 669 mmHg 98%
    04:00 +16°C° 0 mm 0 mps 669 mmHg 98%
    05:00 +17°C° 0 mm 0 mps 670 mmHg 96%
    06:00 +18°C° 0 mm 0 mps 671 mmHg 94%
    07:00 +20°C° 0 mm 0 mps 672 mmHg 92%
    08:00 +24°C° 0 mm 1 mps 672 mmHg 82%
    09:00 +26°C° 0 mm 1 mps 672 mmHg 73%
    10:00 +28°C° 0 mm 1 mps 672 mmHg 63%
    11:00 +28°C° 0.2 mm 1 mps 672 mmHg 61%
    12:00 +29°C° 0.2 mm 1 mps 671 mmHg 58%
    13:00 +30°C° 0.2 mm 1 mps 671 mmHg 56%
    14:00 +29°C° 1.3 mm 1 mps 670 mmHg 66%
    15:00 +28°C° 1.3 mm 1 mps 670 mmHg 75%
    16:00 +26°C° 1.3 mm 1 mps 669 mmHg 85%
    17:00 +25°C° 1 mm 1 mps 669 mmHg 88%
    18:00 +23°C° 1 mm 1 mps 670 mmHg 90%
    19:00 +22°C° 1 mm 1 mps 670 mmHg 93%
    20:00 +21°C° 1.7 mm 1 mps 670 mmHg 93%
    21:00 +21°C° 1.7 mm 1 mps 671 mmHg 93%
    22:00 +21°C° 1.7 mm 1 mps 671 mmHg 93%
    23:00 +20°C° 0 mm 1 mps 670 mmHg 93%
    Show more